Hundvaag 1 weather for Nov 2000
Month no. 161
Obs.
Da.
Temp. Dew Point Precip. Wind
Speed
Wind gusts Cloud cover Press. Humidity Wind dir. Sunny OPT
01.11.2000 6,2   12,3     0 994,3        
02.11.2000 6,4   12,1     4 998,5     1  
03.11.2000 6,7   2,7     3 997,1        
04.11.2000 6,7   7,3     8 1001,7     1  
05.11.2000 5,9   37,4     3 1005,7     1  
06.11.2000 5,5   6,1     0 1006,4     1  
07.11.2000 8,9   0,0     0 1003,2        
08.11.2000 4,8   0,0     2 998,3     1  
09.11.2000 7,9   1,4     0 999,7        
10.11.2000 8,6   0,0     0 1005,5     1  
11.11.2000 7,1   3,1     1 1010,4     1  
12.11.2000 8,1   12,0     0 1002,1        
13.11.2000 6,6   18,5     6 998,9     1  
14.11.2000 6,5   9,3     0 1003,9     1  
15.11.2000 6,1   1,0     3 1009,3     1  
16.11.2000 5,9   0,0     3 1008,3     1  
17.11.2000 6,9   5,1     0 1006,7     1  
18.11.2000 3,8   8,5     6 1006,3     1  
19.11.2000 2,7   11,3     0 999,6        
20.11.2000 4,9   0,7     8 1003,6        
21.11.2000 7,5   0,1     3 1008,5     1  
22.11.2000 6,9   0,0     3 1006,5     1  
23.11.2000 7,2   13,5     3 1005,5     1  
24.11.2000 9,3   0,7     0 1003,7        
25.11.2000 7,1   5,9     1 1006,5        
26.11.2000 7,9   9,0     8 1002,7     1  
27.11.2000 7,2   3,1     2 1004,9     1  
28.11.2000 5,0   8,2     0 1010,8        
29.11.2000 8,7   7,2     0 1007,6        
30.11.2000 9,8   0,8     0 1006,3     1  
                       
Avrg/Sum 6,8   197,3     2,2 1004,1     19